[[{"header":{"parameterUnit":"m.s-1","parameterCategory":1,"la1":30.2991,"la2":30.254,"lo1":-89.0895,"lo2":-89.0444,"dy":0.0017,"dx":0.0017,"nx":28,"ny":28,"refTime":"2024-11-27T09:00:00:Z","depth":0,"parameterNumber":2,"parameterNumberName":"U-component_of_WINDS"},"data":[0,0,0,0,0,0,0,0,0,0,0,0,0,0,0,0,0,0,0,0,0,0,0,0,0,0,0,0,0,0,0,0,0,0,0,0,0,0,0,0,0,0,0,0,0,0,0,0,0,0,0,0,0,0,0,0,0,0,-1.7843,-1.7844,0,-1.7976,-1.7977,-1.7979,-1.8066,-1.8067,-1.8067,-1.8068,-1.8203,-1.8206,-1.821,0,0,0,0,0,0,0,0,0,0,0,0,0,-1.7663,-1.7666,-1.7843,-1.7844,-1.7846,-1.7976,-1.7978,-1.7979,-1.8066,-1.8067,-1.8067,-1.8068,-1.8202,-1.8206,-1.821,0,0,0,0,0,0,0,0,0,0,0,0,0,-1.7763,-1.7667,-1.7842,-1.7905,-1.7912,-1.7975,-1.7978,-1.798,-1.8066,-1.8067,-1.8068,-1.8068,-1.8201,-1.8206,-1.821,-1.8222,0,0,-1.8224,-1.8226,0,0,0,0,0,0,0,0,-1.7757,-1.777,-1.7894,-1.7901,-1.7909,-1.8005,-1.7964,-1.8061,-1.8066,-1.8007,-1.8068,-1.8069,-1.8137,-1.8147,-1.817,-1.8228,-1.8234,-1.8225,-1.8228,-1.823,-1.8231,0,0,0,0,0,0,0,-1.775,-1.7765,-1.7895,-1.7896,-1.7905,-1.7926,-1.7941,-1.7983,-1.8066,-1.8012,-1.8019,-1.8034,-1.8141,-1.8165,-1.8174,-1.8236,-1.8225,-1.8229,-1.8232,-1.8234,-1.8311,-1.831,0,0,0,0,0,0,-1.7734,-1.7758,-1.7891,-1.7899,-1.7834,-1.7929,-1.7946,-1.7973,-1.8065,-1.808,-1.8033,-1.8037,-1.8157,-1.8168,-1.8179,-1.8198,-1.823,-1.8234,-1.8237,-1.8311,-1.8311,-1.831,0,0,0,0,0,0,-1.773,-1.7745,-1.7886,-1.7831,-1.785,-1.7931,-1.7961,-1.7976,-1.8,-1.8081,-1.8096,-1.8042,-1.8158,-1.8172,-1.8211,-1.8204,-1.8236,-1.824,-1.8312,-1.8311,-1.831,-1.8236,0,0,0,0,0,0,-1.7724,-1.7743,-1.7748,-1.783,-1.7853,-1.7915,-1.7961,-1.7978,-1.8008,-1.8015,-1.8094,-1.8108,-1.816,-1.8203,-1.8215,-1.8211,-1.8244,-1.8313,-1.8312,-1.8311,-1.8239,-1.8232,-1.8226,0,0,0,0,0,-1.7717,-1.7721,-1.7748,-1.7763,-1.7861,-1.7914,-1.7927,-1.7987,-1.8007,-1.8012,-1.8065,-1.8105,-1.8203,-1.8206,-1.8221,-1.8217,-1.8314,-1.8312,-1.8311,-1.8242,-1.8233,-1.8226,0,0,0,0,0,0,-1.7636,-1.7733,-1.7763,-1.7794,-1.7845,-1.7929,-1.7938,-1.7977,-1.8023,-1.8027,-1.81,-1.8117,-1.8148,-1.8187,-1.8189,-1.8233,-1.8263,-1.8264,-1.8206,-1.8199,-1.8192,-1.8181,-1.8248,0,0,0,0,0,-1.7621,-1.7657,-1.774,-1.7759,-1.7784,-1.7856,-1.7882,-1.7924,-1.7979,-1.8001,-1.8056,-1.8109,-1.8151,-1.8178,-1.8222,-1.8246,-1.8264,-1.8251,-1.8245,-1.8239,-1.8238,-1.8253,-1.8248,-1.8304,-1.8304,-1.8304,0,0,-1.7592,-1.765,-1.7667,-1.7744,-1.7789,-1.7823,-1.7874,-1.7908,-1.7934,-1.8007,-1.8045,-1.8088,-1.8152,-1.8182,-1.8199,-1.8216,-1.8227,-1.8237,-1.8232,-1.8234,-1.8251,-1.8246,-1.8241,-1.8303,-1.8304,-1.8304,0,0,-1.7555,-1.7603,-1.7624,-1.7668,-1.7735,-1.7783,-1.7788,-1.7866,-1.7897,-1.7938,-1.7992,-1.8025,-1.8097,-1.814,-1.8171,-1.8152,-1.8191,-1.8165,-1.813,-1.8144,-1.814,-1.8136,-1.8128,-1.8124,-1.8164,-1.8164,-1.8164,0,-1.751,-1.7564,-1.7629,-1.7661,-1.7693,-1.7761,-1.7782,-1.7822,-1.7899,-1.7919,-1.7938,-1.803,-1.8078,-1.8119,-1.8115,-1.8138,-1.8146,-1.8154,-1.8135,-1.8132,-1.813,-1.8122,-1.8119,-1.816,-1.8161,-1.8161,-1.8161,0,-1.7504,-1.7541,-1.755,-1.7623,-1.7657,-1.7682,-1.7752,-1.7778,-1.7818,-1.7864,-1.7905,-1.7965,-1.8021,-1.8035,-1.8074,-1.8083,-1.8091,-1.8121,-1.8152,-1.8119,-1.8114,-1.8112,-1.8155,-1.8156,-1.8157,-1.8158,0,0,-1.7417,-1.7527,-1.7529,-1.7563,-1.7643,-1.7672,-1.7702,-1.7758,-1.7778,-1.783,-1.7856,-1.7916,-1.7945,-1.798,-1.8025,-1.8038,-1.8017,-1.8067,-1.807,-1.8054,-1.8029,-1.8003,-1.7999,-1.8045,-1.8045,-1.8045,-1.8023,0,-1.739,-1.7446,-1.7507,-1.7541,-1.7576,-1.7642,-1.7668,-1.7719,-1.7764,-1.78,-1.785,-1.7891,-1.7926,-1.7948,-1.7964,-1.8016,-1.8013,-1.8019,-1.8068,-1.8069,-1.8047,-1.7997,-1.797,-1.7946,-1.8021,-1.8021,-1.8021,0,-1.7366,-1.7414,-1.7452,-1.7529,-1.7546,-1.7567,-1.7624,-1.7658,-1.7718,-1.775,-1.779,-1.7838,-1.7872,-1.7901,-1.795,-1.7952,-1.7977,-1.8006,-1.8007,-1.8011,-1.8041,-1.7998,-1.7941,-1.7936,-1.8019,-1.8019,-1.8019,0,-1.7296,-1.7371,-1.7403,-1.7431,-1.7521,-1.7535,-1.7573,-1.7635,-1.7665,-1.7714,-1.7734,-1.7787,-1.7815,-1.7856,-1.7917,-1.7933,-1.7958,-1.7992,-1.7984,-1.7982,-1.7984,-1.7982,-1.7927,-1.8004,-1.8004,-1.8004,-1.8004,0,-1.7258,-1.7278,-1.7373,-1.7392,-1.7417,-1.7487,-1.7509,-1.7554,-1.7608,-1.7637,-1.7699,-1.7725,-1.7806,-1.7842,-1.789,-1.7922,-1.7935,-1.7961,-1.7973,-1.7954,-1.795,-1.7969,-1.7971,-1.8003,-1.8003,-1.8004,-1.8004,0,-1.7182,-1.7247,-1.7286,-1.7369,-1.739,-1.7404,-1.7476,-1.7497,-1.7547,-1.7583,-1.7596,-1.7673,-1.7718,-1.7784,-1.785,-1.7883,-1.7907,-1.7928,-1.7885,-1.7892,-1.788,-1.7879,-1.7832,-1.7829,-1.7909,-1.7908,-1.7908,0,-1.7152,-1.7169,-1.7254,-1.7278,-1.7314,-1.7352,-1.7383,-1.7454,-1.7484,-1.7554,-1.7567,-1.7618,-1.7661,-1.7731,-1.7793,-1.7844,-1.7865,-1.7846,-1.7873,-1.7853,-1.7862,-1.7859,-1.786,-1.7838,-1.7836,-1.7835,-1.7835,0,-1.7091,-1.7122,-1.7164,-1.7217,-1.7252,-1.7298,-1.7346,-1.7363,-1.7444,-1.7474,-1.7522,-1.7556,-1.7623,-1.7672,-1.7732,-1.7772,-1.7816,-1.7826,-1.7826,-1.7805,-1.7779,-1.7791,-1.7865,-1.7826,-1.7827,-1.7827,-1.7828,-1.7828,-1.7035,-1.7053,-1.7115,-1.716,-1.7204,-1.7248,-1.7272,-1.7325,-1.7366,-1.7426,-1.7466,-1.7511,-1.7572,-1.7657,-1.7695,-1.7731,-1.775,-1.7751,-1.7751,-1.7749,-1.7741,-1.7776,-1.7743,-1.7743,-1.7744,-1.7744,-1.7744,0,-1.6975,-1.7019,-1.706,-1.7125,-1.7161,-1.7201,-1.7257,-1.7284,-1.7322,-1.7376,-1.7418,-1.7473,-1.7521,-1.7588,-1.7641,-1.7657,-1.7679,-1.7669,-1.7666,-1.7675,-1.7723,-1.7716,-1.765,-1.765,-1.765,-1.765,-1.765,-1.765,-1.6947,-1.6979,-1.7018,-1.7073,-1.7117,-1.7161,-1.719,-1.7231,-1.7274,-1.7332,-1.7372,-1.7416,-1.7475,-1.7533,-1.7579,-1.7598,-1.7613,-1.7596,-1.762,-1.7663,-1.7671,-1.7679,-1.7673,-1.76,-1.7599,-1.7569,-1.7569,-1.7568]},{"header":{"parameterUnit":"m.s-1","parameterCategory":1,"la1":30.2991,"la2":30.254,"lo1":-89.0895,"lo2":-89.0444,"dy":0.0017,"dx":0.0017,"nx":28,"ny":28,"refTime":"2024-11-27T09:00:00:Z","depth":0,"parameterNumber":3,"parameterNumberName":"V-component_of_WINDS"},"data":[0,0,0,0,0,0,0,0,0,0,0,0,0,0,0,0,0,0,0,0,0,0,0,0,0,0,0,0,0,0,0,0,0,0,0,0,0,0,0,0,0,0,0,0,0,0,0,0,0,0,0,0,0,0,0,0,0,0,2.4771,2.4771,0,2.481,2.4811,2.4811,2.4811,2.4811,2.481,2.481,2.4847,2.4849,2.485,0,0,0,0,0,0,0,0,0,0,0,0,0,2.4694,2.4696,2.4771,2.4771,2.4772,2.481,2.4811,2.4811,2.4811,2.4811,2.481,2.481,2.4847,2.4848,2.485,0,0,0,0,0,0,0,0,0,0,0,0,0,2.473,2.4696,2.4771,2.4776,2.4777,2.481,2.4811,2.4811,2.4812,2.4811,2.481,2.4809,2.4846,2.4848,2.485,2.4879,0,0,2.4857,2.4858,0,0,0,0,0,0,0,0,2.4728,2.4733,2.4775,2.4776,2.4777,2.4805,2.4797,2.4834,2.4812,2.4798,2.481,2.4809,2.4834,2.4837,2.4846,2.4881,2.4882,2.4857,2.4859,2.486,2.486,0,0,0,0,0,0,0,2.4725,2.4731,2.4786,2.4776,2.4777,2.4777,2.4781,2.4804,2.482,2.48,2.48,2.4805,2.4834,2.4844,2.4847,2.4883,2.4857,2.4859,2.4861,2.4861,2.4945,2.4946,0,0,0,0,0,0,2.4722,2.4729,2.4785,2.4787,2.475,2.4779,2.4784,2.4797,2.4819,2.4822,2.4805,2.4804,2.484,2.4844,2.4848,2.4884,2.486,2.4862,2.4863,2.4944,2.4945,2.4946,0,0,0,0,0,0,2.472,2.4727,2.4783,2.4758,2.4765,2.4781,2.4796,2.4798,2.4808,2.4824,2.4826,2.4812,2.484,2.4845,2.4872,2.4885,2.4863,2.4865,2.4943,2.4944,2.4946,2.4955,0,0,0,0,0,0,2.4718,2.4726,2.4737,2.4759,2.4767,2.4807,2.4797,2.4799,2.4812,2.4811,2.4831,2.4833,2.484,2.4869,2.4874,2.4888,2.4866,2.4942,2.4944,2.4945,2.4954,2.4957,2.4959,0,0,0,0,0,2.4715,2.4737,2.4738,2.4745,2.4781,2.4808,2.4812,2.482,2.4813,2.4824,2.4835,2.4833,2.4883,2.4871,2.4877,2.4892,2.4941,2.4943,2.4945,2.4953,2.4956,2.4959,0,0,0,0,0,0,2.4715,2.474,2.4741,2.477,2.4787,2.4808,2.4822,2.4823,2.4841,2.484,2.4847,2.4852,2.4879,2.4888,2.4875,2.4922,2.4911,2.4914,2.4915,2.4918,2.4921,2.4918,2.4868,0,0,0,0,0,2.4719,2.4739,2.476,2.4784,2.4792,2.4806,2.4818,2.4822,2.4839,2.4846,2.4859,2.4875,2.4894,2.4907,2.4925,2.4956,2.496,2.4969,2.4971,2.4974,2.4976,2.4994,2.4999,2.4953,2.4953,2.4953,0,0,2.4726,2.4742,2.4754,2.4784,2.4798,2.4819,2.4811,2.4833,2.4849,2.4849,2.4876,2.4886,2.4904,2.4934,2.4947,2.4942,2.499,2.4976,2.4978,2.4979,2.4997,2.5001,2.5005,2.4954,2.4954,2.4954,0,0,2.475,2.4764,2.4787,2.4801,2.4823,2.4832,2.4838,2.4859,2.4866,2.4893,2.4895,2.4913,2.4946,2.496,2.4971,2.5004,2.5003,2.501,2.5024,2.5041,2.5045,2.5048,2.5061,2.5065,2.5012,2.5012,2.5012,0,2.4756,2.4788,2.4798,2.4821,2.4834,2.4838,2.4861,2.4874,2.49,2.4909,2.4903,2.4947,2.4959,2.4993,2.5001,2.501,2.5017,2.5007,2.5044,2.5047,2.505,2.5062,2.5067,2.5013,2.5013,2.5013,2.5013,0,2.4795,2.4818,2.4833,2.486,2.4876,2.4898,2.4911,2.4926,2.493,2.494,2.4969,2.4984,2.5007,2.5016,2.5019,2.505,2.5046,2.5042,2.5032,2.5055,2.5067,2.5071,2.5014,2.5014,2.5014,2.5013,0,0,2.4818,2.4853,2.4858,2.4872,2.4897,2.4914,2.4937,2.4961,2.4974,2.4992,2.5012,2.5042,2.5039,2.5052,2.5057,2.5073,2.5099,2.5067,2.5068,2.5073,2.5135,2.5138,2.5144,2.5099,2.51,2.5101,2.5134,0,2.4845,2.4888,2.4899,2.4935,2.4957,2.4962,2.4982,2.5,2.5011,2.503,2.5041,2.5062,2.5057,2.5065,2.5081,2.5092,2.5112,2.509,2.5118,2.5119,2.5113,2.5149,2.5152,2.5183,2.5139,2.5139,2.514,0,2.4882,2.4904,2.4943,2.4968,2.4977,2.4995,2.5019,2.5038,2.5059,2.5065,2.5081,2.5086,2.5111,2.51,2.5134,2.5119,2.5131,2.5139,2.5141,2.5143,2.513,2.5153,2.5192,2.5197,2.5147,2.5146,2.5146,0,2.4896,2.4935,2.4964,2.4975,2.5004,2.5017,2.503,2.505,2.5064,2.5085,2.5095,2.5118,2.513,2.5148,2.5159,2.5149,2.5193,2.5182,2.5199,2.5199,2.5207,2.5206,2.5249,2.5215,2.5215,2.5215,2.5215,0,2.4925,2.4949,2.4971,2.4988,2.5016,2.5028,2.5055,2.5067,2.5086,2.5106,2.5111,2.513,2.5143,2.5164,2.5172,2.52,2.5205,2.5211,2.5213,2.5211,2.521,2.5219,2.5217,2.5216,2.5216,2.5216,2.5215,0,2.4945,2.496,2.4992,2.5019,2.5026,2.5045,2.5067,2.5085,2.5097,2.5122,2.5129,2.5147,2.5172,2.5185,2.5215,2.5221,2.5252,2.5253,2.5246,2.5247,2.5263,2.5262,2.5313,2.532,2.5281,2.5281,2.5281,0,2.4962,2.4981,2.501,2.5025,2.5039,2.5062,2.5078,2.5091,2.5107,2.5134,2.5149,2.5174,2.5195,2.5235,2.525,2.5274,2.5275,2.5292,2.5278,2.5276,2.5276,2.5275,2.5277,2.5294,2.5294,2.5294,2.5294,0,2.4992,2.5,2.5022,2.5049,2.5068,2.5089,2.511,2.5122,2.5139,2.5156,2.5183,2.52,2.5232,2.5258,2.5283,2.5295,2.5298,2.5299,2.5304,2.5302,2.5297,2.5301,2.5252,2.5297,2.5297,2.5297,2.5297,2.5296,2.5011,2.5029,2.5054,2.508,2.5097,2.5117,2.5136,2.5151,2.5174,2.5203,2.5209,2.5237,2.5259,2.5294,2.5307,2.533,2.5326,2.5333,2.5335,2.5337,2.5338,2.5294,2.5334,2.5334,2.5334,2.5334,2.5334,0,2.5042,2.5059,2.5083,2.5113,2.5134,2.5137,2.516,2.5177,2.5203,2.5223,2.5245,2.5276,2.5302,2.532,2.5346,2.5361,2.5362,2.5367,2.5366,2.5369,2.5339,2.5333,2.5365,2.5365,2.5365,2.5365,2.5365,2.5365,2.506,2.5092,2.5102,2.5143,2.5159,2.5188,2.5201,2.522,2.5237,2.5273,2.5294,2.5307,2.5327,2.5355,2.5379,2.5383,2.5393,2.5397,2.5402,2.5374,2.5371,2.5368,2.5361,2.5399,2.5399,2.543,2.543,2.543]}]]